Regional Weather Roundup
Issued by NWS

Home | Current Version | Previous Version | Text Only | Print | Product List | Glossary Off
Versions: 1 2 3 4 5 6 7 8 9 10 11 12 13 14 15 16 17 18 19 20 21 22 23 24 25 26 27 28 29 30 31 32 33 34 35 36 37 38 39 40 41 42 43 44 45 46 47 48 49 50

615
ASUS45 KTFX 281210
RWRMT
MONTANA REGIONAL WEATHER ROUNDUP
NATIONAL WEATHER SERVICE GREAT FALLS MT
600 AM MDT FRI APR 28 2017

NOTE: "FAIR" INDICATES FEW OR NO CLOUDS BELOW 12000 FEET WITH NO
SIGNIFICANT WEATHER AND/OR OBSTRUCTIONS TO VISIBILITY.

MTZ001>007-043-281300-
WEST OF THE DIVIDE

CITY           SKY/WX    TMP DP  RH WIND       PRES   REMARKS
KALISPELL      CLOUDY    39  38  96 CALM      29.98R
MISSOULA       CLOUDY    40  31  70 CALM      30.00R
BUTTE          CLOUDY    28  21  75 W6        29.93R WCI  22
MULLAN PASS    CLOUDY    27  27 100 VRB3      29.94R
ANACONDA         N/A     27  19  74 W5        29.95S
DEER LODGE       N/A     27  21  80 CALM      29.98R
EUREKA           N/A     39  36  87 SE6       29.97R
HAMILTON         N/A     36  27  69 S5        29.99R
LIBBY            N/A     36  34  93 CALM      29.98R
PLAINS           N/A     41  34  76 CALM      30.00R
RONAN            N/A     36  32  85 CALM      30.02R
THOMPSON FALLS   N/A     39  37  92 CALM      30.05R
$$

MTZ008-052>055-281300-
SOUTHWEST MONTANA

CITY           SKY/WX    TMP DP  RH WIND       PRES   REMARKS
BOZEMAN        CLOUDY    36  31  82 W8        29.91R WCI  30
DILLON         CLOUDY    31  21  66 SW3       29.91R
W YELLOWSTONE  CLOUDY    23  23 100 CALM      29.82S
THREE FORKS      N/A     36  22  57 CALM      29.92R
TWIN BRIDGES     N/A     33  21  61 NW5       29.91S
$$

MTZ009-010-012-014-046-048-049-054-281300-
EAST SLOPES AND CENTRAL MONTANA

CITY           SKY/WX    TMP DP  RH WIND       PRES   REMARKS
CUT BANK       CLOUDY    35  34  96 N10       29.93R WCI  27
GREAT FALLS    CLOUDY    36  33  89 SW5       29.93R
MALMSTROM AFB  CLOUDY    37  36  98 W5        29.93R
HELENA         PTCLDY    35  26  69 W3        29.94R
AUGUSTA        CLOUDY    33  29  85 NW9       29.92R WCI  25
BOWMANS CRNR   MOCLDY    28  25  89 SW7       29.91R WCI  20
CHOTEAU          N/A     34  30  86 SW5       29.94R
FAIRFIELD      MOCLDY    33  31  94 NW5       29.92R
POWER          CLOUDY    35  34  95 CALM      29.92R
RAYNESFORD     LGT RAIN  34  34  99 SW5       29.93R
ULM            CLOUDY    36  33  89 CALM      29.93R
$$

MTZ011-013-016-021-045-047-050-051-281300-
NORTH CENTRAL MONTANA

CITY           SKY/WX    TMP DP  RH WIND       PRES   REMARKS
HAVRE          MOCLDY    28  27  96 CALM      29.95R
LEWISTOWN      CLOUDY    35  34  96 NW9       29.90R WCI  28
N BAR RANCH    LGT SNOW  34  32  93 N8        29.90R WCI  27
CHINOOK          N/A     30  30 100 CALM      29.96R VSB 0
DENTON         MOCLDY    35  34  96 N5        29.89R
FORT BENTON      N/A     37  36  93 N3        29.94R
GEYSER         LGT RAIN  36  34  94 W10       29.91R WCI  28
GRASS RANGE    FLURRIES  35  34  96 N3        29.87R
JUDITH GAP     FLURRIES  34  31  92 N22       29.86R WCI  22
STANFORD       CLOUDY    35  33  94 NW10      29.91R WCI  27
WINIFRED       CLOUDY    37  36  99 NW3       29.91R
$$

MTZ017>020-022>027-061-062-281300-
NORTHEAST MONTANA

CITY           SKY/WX    TMP DP  RH WIND       PRES   REMARKS
GLASGOW        CLOUDY    40  17  39 E12       29.92R
JORDAN           N/A     35  26  69 N8        29.88R WCI  29
SIDNEY         CLEAR     28  21  75 CALM      29.96R
WOLF POINT     CLOUDY    29  19  66 E6        29.95R WCI  23
PLENTYWOOD       N/A     32  21  64 E3        29.97R
POPLAR           N/A     30  19  64 N6        29.96R WCI  24
SCOBEY           N/A     32  17  54 CALM      29.94R
$$

MTZ028>42-056>058-281300-
SOUTHCENTRAL AND SOUTHEAST MONTANA

CITY           SKY/WX    TMP DP  RH WIND       PRES   REMARKS
BAKER          PTCLDY    25  20  81 SE5       29.89R
BILLINGS       LGT RAIN  38  36  92 N13       29.85R WCI  30
LIVINGSTON     CLOUDY    36  31  82 NW8       29.87R WCI  30
MILES CITY     CLOUDY    34  25  69 NE12      29.88R WCI  25
BIG TIMBER     CLOUDY    36  32  87 SW6       29.90R WCI  31
LAUREL           N/A     38  32  79 N12       29.85S WCI  30
ROUNDUP          N/A     39  33  79 NW7       29.80R
$$

REGIONAL REPORTS...DAKOTAS

CITY           SKY/WX    TMP DP  RH WIND       PRES   REMARKS
WILLISTON      CLEAR     27  21  78 N5        29.97R
MINOT          CLEAR     25  21  85 SW6       29.97R WCI  18
DICKINSON      CLOUDY    25  19  78 E6        29.91R WCI  18
BEACH            N/A     23  19  86 SE5       29.95R
TIOGA            N/A     21  21 100 W5        29.98R
WATFORD CITY     N/A     23  19  86 CALM      29.96R
BISMARCK       CLEAR     26  24  92 CALM      29.96R
GRAND FORKS    CLEAR     31  28  89 NW8       29.92R WCI  23
FARGO          CLEAR     27  25  92 NW6       29.92R WCI  20
BUFFALO SD       N/A     31  25  78 NE9       29.80R WCI  23
RAPID CITY     CLOUDY    35  30  82 N9        29.81R WCI  28
$$

REGIONAL REPORTS...WYOMING/IDAHO/WASHINGTON

CITY           SKY/WX    TMP DP  RH WIND       PRES   REMARKS
GILLETTE       SNOW      31  31 100 N9        29.76R WCI  23
SHERIDAN       FLURRIES  33  32  96 W9        29.83R WCI  25
BUFFALO WY     LGT SNOW  32  29  88 NW18G29   29.78R VSB 3/4 WCI  20
CODY           LGT SNOW  33  31  92 N22G30    29.78R FOG     WCI  21
YELLOWSTONE LA   N/A     22  19  89 CALM      29.79S
IDAHO FALLS    CLOUDY    33  30  88 SW5       29.87S
SALMON         CLOUDY    30  25  80 CALM      29.97R
BOISE          CLEAR     36  32  85 NW7       30.01R WCI  30
SPOKANE        MOCLDY    38  32  79 S5        30.01R
$$

REGIONAL REPORTS...ALBERTA

CITY           SKY/WX    TMP DP  RH WIND       PRES   REMARKS
EDMONTON       PTCLDY    27  25  93 W3        30.01S
CALGARY        MOCLDY    32  30  93 W2        29.98R
LETHBRIDGE     CLOUDY    36  32  87 N10       29.97R WCI  28
MEDICINE HAT   CLOUDY    36  32  87 N9        29.96R WCI  29
WATERTON GATE    N/A     32  34 100 N8          N/A  WCI  25
CARDSTON         N/A     34  34 100 N9          N/A  WCI  26
MILK RIVER       N/A     37  36  93 N8          N/A  WCI  31
$$

REGIONAL REPORTS...SASKATCHEWAN

CITY           SKY/WX    TMP DP  RH WIND       PRES   REMARKS
SWIFT CURRENT  CLEAR     32  32 100 NW3       29.91R FOG
REGINA         PTCLDY    28  21  74 SE9       29.97R WCI  20
SASKATOON      CLOUDY    36  21  55 SE5       29.97R
VAL MARIE        N/A     34  30  86 NE3         N/A
ROCKGLEN         N/A     32  19  59 S7          N/A  WCI  26
ASSINIBOIA       N/A     34  32  93 NW6         N/A  WCI  29
$$




USA.gov is the U.S. government's official web portal to all federal, state and local government web resources and services.